Date,TemperatureHighF,TemperatureAvgF,TemperatureLowF,DewpointHighF,DewpointAvgF,DewpointLowF,HumidityHigh,HumidityAvg,HumidityLow,PressureMaxIn,PressureMinIn,WindSpeedMaxMPH,WindSpeedAvgMPH,GustSpeedMaxMPH,PrecipitationSumIn
2013-1-1,50.2,47.6,43.3,49.2,40.9,25.5,100,81,41,29.90,29.73,12,4,12,0.28
2013-1-2,52.3,47.8,36.9,48.5,45.0,36.6,100,90,70,29.94,29.68,14,4,14,0.11
2013-1-3,45.5,40.9,31.3,42.3,38.5,30.7,100,91,79,30.05,29.88,9,2,9,0.00
2013-1-4,53.4,38.0,26.1,32.3,24.1,15.6,100,64,26,30.12,29.99,12,4,12,0.00
2013-1-5,50.9,39.4,25.7,31.3,23.0,16.6,85,55,28,30.17,30.00,12,2,12,0.00
2013-1-6,58.3,45.9,37.2,42.6,37.2,30.2,92,72,49,30.01,29.82,12,3,12,0.01
2013-1-7,56.1,40.8,29.1,34.0,29.1,24.5,100,67,31,30.20,29.98,16,2,16,0.00
2013-1-8,55.8,41.3,28.6,41.4,35.1,27.7,100,80,53,30.23,30.13,9,2,9,0.00
2013-1-9,67.1,53.4,39.7,53.0,47.3,39.3,100,82,56,30.23,30.14,9,2,9,0.00
2013-1-10,71.1,58.0,49.6,55.1,48.6,39.9,100,74,47,30.28,30.15,14,3,14,0.00
2013-1-11,54.5,50.0,47.8,51.6,49.6,46.7,100,99,75,30.15,29.97,16,4,16,0.11
2013-1-12,77.4,64.2,48.0,65.8,60.9,47.8,100,90,66,29.95,29.88,11,3,11,0.01
2013-1-13,74.1,64.6,59.4,64.2,61.6,58.9,100,91,70,29.93,29.85,17,4,17,0.00
2013-1-14,65.8,63.4,60.4,65.4,63.0,60.2,100,98,94,29.92,29.85,11,3,11,0.24
2013-1-15,63.9,48.7,41.9,63.4,48.5,41.6,99,99,99,29.97,29.85,14,5,14,0.09
2013-1-16,50.0,45.5,41.4,49.6,45.2,41.1,99,99,99,29.86,29.76,9,2,9,0.21
2013-1-17,51.8,45.9,33.1,50.8,45.6,32.8,99,99,99,29.95,29.58,31,8,31,1.84
2013-1-18,55.6,42.8,30.7,34.6,25.3,18.5,87,53,26,30.27,30.21,14,3,14,0.09
2013-1-19,58.8,41.7,26.2,31.0,25.5,9.9,100,60,15,30.26,29.94,14,3,14,0.00
2013-1-20,69.6,50.1,37.0,32.0,27.2,19.0,72,44,20,29.94,29.79,15,4,15,0.00
2013-1-21,62.6,46.7,30.6,34.5,22.8,5.5,94,46,18,29.86,29.70,23,5,23,0.00
2013-1-22,45.0,35.6,25.5,14.9,0.2,-15.1,42,24,10,30.02,29.79,19,5,19,0.00
2013-1-23,50.0,35.0,21.0,28.0,10.8,-2.8,66,39,18,30.12,29.83,17,3,17,0.00
2013-1-24,52.0,38.4,25.7,33.9,14.2,-4.7,80,43,10,30.26,29.75,22,6,22,0.00
2013-1-25,27.1,24.4,19.4,25.8,15.8,2.1,100,72,35,30.27,29.88,11,2,11,0.00
2013-1-26,54.7,34.0,24.8,39.3,29.9,24.6,100,88,42,30.13,29.86,9,1,9,0.02
2013-1-27,51.4,37.6,24.4,31.9,26.8,21.8,100,68,36,30.32,30.13,14,3,14,0.00
2013-1-28,52.0,42.5,34.3,49.2,38.5,29.4,100,86,66,30.24,30.02,11,3,11,0.04
2013-1-29,73.6,60.0,45.7,60.8,54.0,45.2,100,82,57,30.03,29.82,21,6,21,0.00
2013-1-30,74.1,66.1,52.3,65.3,62.0,51.2,100,88,60,29.83,29.24,36,12,36,0.64
2013-1-31,51.3,44.0,37.2,47.9,19.6,11.2,94,39,22,29.81,29.34,28,11,28,0.02
2013-2-1,41.7,36.2,23.5,28.0,7.6,-15.5,62,34,10,30.14,29.69,25,8,25,0.00
2013-2-2,48.0,35.2,22.3,36.7,13.0,-2.6,87,44,13,30.14,29.81,30,6,30,0.00
2013-2-3,55.0,42.0,31.5,36.7,27.4,8.2,100,62,16,29.81,29.63,33,7,33,0.00
2013-2-4,53.4,40.2,28.0,26.9,21.4,14.9,76,50,23,29.91,29.77,12,4,12,0.00
2013-2-5,67.1,49.9,37.4,43.1,33.4,26.7,87,55,30,29.77,29.67,18,4,18,0.00
2013-2-6,71.1,51.1,34.7,43.3,28.1,7.8,100,53,10,30.00,29.76,11,2,11,0.00
2013-2-7,44.8,40.9,38.1,41.9,34.2,23.1,100,79,45,30.06,29.77,15,5,15,0.78
2013-2-8,61.2,47.0,37.8,48.4,38.5,28.9,99,75,39,29.89,29.65,20,5,20,0.01
2013-2-9,64.0,44.5,29.7,29.7,18.4,-1.2,89,46,10,30.11,29.88,12,2,12,0.00
2013-2-10,59.4,45.7,34.2,46.5,24.7,5.9,100,51,12,30.21,29.94,19,3,19,0.13
2013-2-11,58.1,52.3,45.7,57.8,52.0,45.2,99,99,99,29.95,29.74,20,5,20,0.18
2013-2-12,63.0,52.2,41.5,51.4,36.9,20.2,99,63,21,29.89,29.69,11,2,11,0.02
2013-2-13,46.8,44.4,43.0,45.9,43.9,42.5,100,98,90,29.73,29.57,8,2,8,0.02
2013-2-14,54.0,43.7,31.3,35.5,33.4,28.9,100,69,42,29.98,29.67,11,2,11,0.00
2013-2-15,64.4,48.3,31.6,39.1,32.4,22.8,100,62,21,30.01,29.85,18,4,18,0.00
2013-2-16,46.6,35.7,23.7,36.1,31.6,23.5,100,86,65,29.91,29.74,18,2,18,0.00
2013-2-17,45.0,31.4,19.6,24.3,11.1,-6.0,100,50,12,30.16,29.91,25,5,25,0.04
2013-2-18,57.6,40.6,22.3,26.5,17.8,9.8,73,42,20,30.28,30.12,14,4,14,0.00
2013-2-19,52.2,41.0,35.8,46.8,35.2,17.7,100,81,42,30.13,29.79,17,6,17,0.19
2013-2-20,55.8,45.0,26.6,19.5,7.5,-3.7,67,25,10,30.03,29.93,15,4,15,0.00
2013-2-21,64.9,44.4,26.6,40.5,13.3,-1.2,92,34,10,30.17,30.00,14,2,14,0.02
2013-2-22,42.8,37.9,36.0,40.5,37.5,35.7,100,99,88,30.22,30.02,14,4,14,0.44
2013-2-23,43.3,39.5,35.8,43.1,39.3,35.5,99,99,99,30.05,29.76,11,3,11,0.54
2013-2-24,68.0,51.4,40.5,47.4,32.7,8.6,99,60,10,29.95,29.75,21,4,21,0.01
2013-2-25,43.9,40.9,38.3,29.5,26.3,23.6,66,56,49,30.10,29.93,19,6,19,0.00
2013-2-26,40.3,36.7,32.5,40.0,35.5,24.4,100,96,57,29.99,29.52,21,6,21,0.98
2013-2-27,59.4,47.8,35.8,41.3,37.7,33.9,99,71,42,29.73,29.57,24,6,24,0.00
2013-2-28,52.2,42.3,34.5,35.6,28.6,22.0,91,61,35,29.82,29.65,14,4,14,0.00
2013-3-1,50.0,39.7,27.0,31.0,27.8,25.3,97,64,41,29.85,29.78,13,4,13,0.00
2013-3-2,48.4,37.4,27.9,38.2,31.6,22.5,100,80,58,29.86,29.74,12,2,12,0.07
2013-3-3,49.5,34.7,22.5,23.5,18.1,12.7,93,54,24,29.92,29.79,16,4,16,0.00
2013-3-4,58.5,37.1,21.7,19.3,12.8,-1.3,81,46,10,30.04,29.91,14,4,14,0.00
2013-3-5,52.2,46.3,42.4,46.9,41.7,17.9,100,85,33,29.96,29.54,14,4,14,0.50
2013-3-6,49.1,40.4,30.7,42.5,26.0,19.6,99,58,36,30.03,29.54,30,11,30,0.01
2013-3-7,59.9,40.7,26.1,29.8,25.7,19.3,97,61,23,30.18,30.02,17,4,17,0.00
2013-3-8,60.3,42.7,25.9,27.5,21.7,10.2,92,50,15,30.23,30.12,17,4,17,0.00
2013-3-9,70.5,49.7,29.5,31.9,26.2,15.4,86,45,13,30.26,30.14,11,2,11,0.00
2013-3-10,70.2,55.1,39.6,38.5,32.9,25.1,81,47,19,30.21,30.08,16,2,16,0.00
2013-3-11,69.8,57.2,43.7,57.8,40.4,16.2,100,55,31,30.11,29.78,22,6,22,0.07
2013-3-12,72.0,60.2,45.3,62.8,47.8,26.6,100,70,19,29.92,29.67,21,7,21,0.43
2013-3-13,58.5,45.4,36.1,33.7,22.8,8.6,88,46,14,30.08,29.91,25,7,25,0.00
2013-3-14,55.0,40.8,27.5,17.8,11.4,-3.1,65,34,10,30.20,30.06,19,5,19,0.00
2013-3-15,70.9,50.0,29.7,39.6,24.9,12.7,77,40,20,30.11,29.83,17,5,17,0.00
2013-3-16,79.5,67.0,57.4,44.2,40.9,37.3,59,41,23,29.83,29.65,30,10,30,0.00
2013-3-17,76.8,61.2,45.5,54.1,44.1,39.3,86,55,30,30.02,29.78,23,6,23,0.00
2013-3-18,45.7,41.2,39.2,43.5,40.8,38.6,100,98,86,30.05,29.77,17,5,17,0.58
2013-3-19,68.9,51.8,39.0,48.3,23.5,-4.0,99,51,10,29.97,29.76,24,7,24,0.00
2013-3-20,60.4,50.2,43.2,17.6,3.5,-6.6,29,15,10,30.03,29.71,17,5,17,0.00
2013-3-21,48.6,39.1,28.9,30.1,5.3,-11.8,63,27,10,29.89,29.72,24,8,24,0.00
2013-3-22,55.9,39.9,24.1,21.2,11.6,-2.6,70,35,10,29.99,29.88,16,4,16,0.00
2013-3-23,59.9,46.3,39.7,43.8,35.8,20.6,100,68,37,29.97,27.44,11,2,11,0.02
2013-3-24,43.2,40.8,37.8,42.9,40.5,37.3,100,99,95,29.85,29.47,21,5,21,0.77
2013-3-25,48.6,41.3,36.5,39.7,26.8,13.6,99,63,27,29.81,29.47,31,10,31,0.04
2013-3-26,49.5,39.5,29.5,26.4,23.8,19.9,79,55,35,30.09,29.80,17,6,17,0.00
2013-3-27,55.0,41.2,27.0,27.1,20.8,12.7,87,49,20,30.17,30.08,18,5,18,0.00
2013-3-28,61.0,44.1,27.3,25.2,18.0,3.2,84,41,10,30.22,30.10,18,4,18,0.00
2013-3-29,64.9,48.9,30.7,41.0,22.1,6.4,82,42,10,30.25,30.09,17,4,17,0.00
2013-3-30,67.8,54.4,44.6,50.4,43.3,37.8,100,71,35,30.14,29.98,11,3,11,0.32
2013-3-31,72.0,58.6,50.5,59.7,52.8,45.5,100,83,49,29.98,29.73,21,6,21,0.28
2013-4-1,74.1,62.3,53.1,57.8,42.6,22.6,100,58,16,29.89,29.76,27,5,27,0.00
2013-4-2,68.2,54.8,41.4,36.7,24.5,5.3,78,37,10,30.08,29.88,21,4,21,0.00
2013-4-3,63.9,53.7,43.7,24.9,12.3,1.9,35,20,10,30.20,30.04,18,5,18,0.00
2013-4-4,48.9,41.8,35.4,40.3,29.7,7.2,100,69,19,30.19,29.89,24,6,24,0.84
2013-4-5,71.1,51.8,35.8,48.0,39.2,26.6,99,69,21,29.97,29.81,14,4,14,0.00
2013-4-6,73.8,57.1,41.0,41.5,32.3,15.1,90,47,11,30.15,29.97,17,4,17,0.00
2013-4-7,74.1,59.6,42.8,50.9,44.1,36.3,89,60,28,30.18,30.02,18,4,18,0.00
2013-4-8,80.1,67.3,52.7,56.9,52.3,46.6,100,63,31,30.09,29.98,17,5,17,0.00
2013-4-9,86.4,72.3,56.5,58.3,54.7,50.7,100,58,30,30.13,30.01,18,4,18,0.00
2013-4-10,88.9,75.3,62.6,61.5,57.4,50.5,91,57,28,30.04,29.88,17,6,17,0.00
2013-4-11,84.7,71.2,61.9,69.7,62.5,57.4,100,76,46,29.92,29.67,23,6,23,0.20
2013-4-12,83.5,71.9,60.4,68.8,53.9,26.7,100,63,13,29.76,29.57,28,9,28,0.94
2013-4-13,80.8,64.4,46.2,45.8,33.6,17.7,81,38,10,29.96,29.76,15,3,15,0.00
2013-4-14,81.0,64.8,48.2,55.6,39.8,27.6,82,44,16,30.02,29.92,16,3,16,0.02
2013-4-15,71.6,61.8,56.5,62.7,59.2,54.7,100,92,71,30.13,29.91,9,3,9,0.07
2013-4-16,83.7,68.5,57.4,64.0,59.3,54.5,99,76,38,30.23,30.10,14,3,14,0.00
2013-4-17,87.6,72.0,59.0,64.8,60.4,51.0,100,71,30,30.18,30.03,14,3,14,0.00
2013-4-18,83.5,71.7,63.1,65.1,61.6,55.3,97,73,39,30.09,29.92,18,5,18,0.00
2013-4-19,79.7,67.7,54.7,68.9,64.3,53.8,100,89,62,29.92,29.67,34,9,34,0.21
2013-4-20,70.7,55.9,43.7,54.9,30.8,13.4,100,45,12,30.19,29.83,14,4,14,0.00
2013-4-21,67.1,54.1,43.2,40.7,36.2,32.6,73,52,31,30.36,30.19,21,6,21,0.00
2013-4-22,68.9,53.8,41.9,40.6,31.5,15.1,88,49,14,30.35,30.15,19,6,19,0.00
2013-4-23,75.0,58.9,44.6,54.0,45.6,37.5,90,64,36,30.19,30.03,13,4,14,0.00
2013-4-24,75.2,62.5,51.1,59.0,55.1,50.8,100,80,50,30.06,29.93,21,7,21,0.00
2013-4-25,76.3,62.6,53.4,61.0,39.6,16.4,100,50,11,30.21,29.97,19,4,19,0.00
2013-4-26,77.5,61.7,45.1,46.4,30.3,13.4,70,36,10,30.36,30.21,21,3,21,0.00
2013-4-27,69.6,59.1,55.2,60.5,52.1,42.6,100,79,51,30.28,30.17,8,2,8,0.24
2013-4-28,57.6,55.3,54.0,57.3,55.0,53.7,99,99,99,30.17,29.97,11,3,11,1.84
2013-4-29,79.5,63.7,55.8,63.7,59.2,55.5,100,87,51,29.98,29.87,9,2,9,0.12
2013-4-30,76.5,63.8,56.7,64.9,60.2,56.4,99,89,60,30.10,29.91,17,4,17,0.00
2013-5-1,67.3,59.8,52.3,60.5,57.2,52.1,100,92,72,30.22,30.10,18,5,18,0.00
2013-5-2,64.4,58.9,56.1,59.3,57.6,55.9,100,96,83,30.23,30.15,17,6,17,0.20
2013-5-3,68.9,61.3,55.4,57.9,53.8,47.3,100,78,58,30.17,30.04,24,8,24,0.00
2013-5-4,64.0,56.0,50.2,54.5,48.6,43.4,97,77,60,30.06,29.92,25,10,25,0.00
2013-5-5,59.5,53.6,50.5,58.7,52.7,49.4,100,97,88,29.96,29.77,27,12,27,0.74
2013-5-6,74.3,62.1,53.4,64.1,55.0,41.6,99,81,35,29.83,29.75,30,5,30,1.48
2013-5-7,73.8,59.3,47.5,56.3,49.8,42.2,100,75,35,29.89,29.79,15,4,15,0.01
2013-5-8,78.4,64.3,51.6,59.5,55.0,50.2,100,76,39,29.95,29.84,21,4,21,0.00
2013-5-9,88.9,69.2,52.3,59.5,54.9,47.5,100,66,26,30.02,29.93,12,2,12,0.00
2013-5-10,85.1,72.4,56.3,63.4,59.2,55.3,100,67,38,30.01,29.88,21,4,21,0.00
2013-5-11,81.9,71.8,63.0,70.2,62.8,58.6,100,75,47,29.90,29.73,19,6,19,0.17
2013-5-12,77.0,65.3,53.2,63.1,47.3,24.4,100,59,17,29.97,29.77,18,4,18,0.00
2013-5-13,72.7,58.7,41.7,42.5,29.8,10.5,93,41,10,30.11,29.97,17,4,17,0.00
2013-5-14,76.3,61.7,41.9,46.4,36.5,27.8,89,43,18,30.18,30.00,18,4,18,0.00
2013-5-15,93.4,74.7,53.8,62.1,55.5,46.4,95,55,27,30.01,29.86,19,5,19,0.00
2013-5-16,88.2,75.0,61.0,65.1,59.4,47.6,96,62,26,29.96,29.87,12,4,12,0.00
2013-5-17,91.4,76.7,61.9,68.3,61.8,53.0,100,64,30,30.03,29.93,14,3,14,0.00
2013-5-18,74.3,69.7,65.1,70.4,66.1,62.3,100,89,75,30.08,29.99,10,2,10,0.06
2013-5-19,81.9,71.3,66.2,71.5,68.1,65.9,100,90,64,30.06,29.96,16,4,16,0.02
2013-5-20,89.4,74.0,67.1,72.4,68.4,64.5,100,85,47,30.07,29.94,8,2,8,0.15
2013-5-21,92.8,76.5,66.4,73.6,68.8,62.2,100,80,39,29.99,29.88,19,3,19,0.00
2013-5-22,89.4,75.0,65.1,69.7,66.8,62.6,100,79,45,29.95,29.82,17,5,17,0.02
2013-5-23,85.5,70.4,63.9,70.1,66.3,63.4,99,88,56,29.93,29.76,11,3,11,0.39
2013-5-24,75.6,66.7,55.6,64.9,46.5,22.7,99,57,15,30.14,29.81,24,6,24,0.01
2013-5-25,80.1,64.1,44.2,50.4,39.3,23.2,91,47,14,30.25,30.07,14,4,14,0.00
2013-5-26,82.2,66.6,57.2,55.2,44.5,36.2,78,47,21,30.22,30.10,11,3,11,0.00
2013-5-27,86.7,72.2,52.9,60.8,54.2,48.6,100,58,30,30.20,30.07,22,3,22,0.00
2013-5-28,88.3,75.3,62.1,65.9,62.8,56.2,100,68,39,30.17,30.07,18,5,18,0.00
2013-5-29,89.1,76.2,61.2,64.8,61.7,54.6,100,64,36,30.18,29.37,18,4,18,0.00
2013-5-30,90.9,76.4,61.9,66.2,62.3,53.9,100,66,30,30.22,30.09,12,3,12,0.00
2013-5-31,91.9,77.8,66.4,70.1,65.5,58.7,100,69,35,30.17,30.03,14,4,14,0.00
2013-6-1,90.0,78.9,69.1,70.1,66.7,61.1,100,69,40,30.07,29.95,17,5,17,0.00
2013-6-2,84.6,75.3,68.7,73.8,68.9,66.6,100,81,60,29.99,29.84,15,5,15,0.15
2013-6-3,90.0,74.9,66.7,71.8,69.5,64.6,100,85,47,29.90,29.79,21,3,21,0.30
2013-6-4,87.8,76.0,65.8,72.3,67.6,64.7,100,78,48,30.01,29.88,17,4,17,0.22
2013-6-5,82.8,72.5,67.5,71.5,69.5,67.0,100,91,69,30.04,29.91,14,5,14,0.07
2013-6-6,81.3,72.4,67.8,76.6,71.3,67.4,100,97,78,29.93,29.75,15,4,15,0.78
2013-6-7,86.7,72.6,67.3,73.4,69.3,66.7,100,91,61,29.79,29.59,17,4,17,1.12
2013-6-8,89.4,75.5,67.1,71.0,68.3,64.2,99,81,45,30.03,29.77,10,3,10,0.02
2013-6-9,91.2,76.1,66.2,73.8,69.8,65.9,100,84,47,30.09,29.98,21,3,21,0.26
2013-6-10,84.2,73.7,68.4,74.7,71.1,67.6,100,92,65,30.02,29.84,23,7,23,0.18
2013-6-11,91.2,77.9,67.3,74.5,66.7,58.7,99,73,37,29.93,29.86,16,5,16,0.25
2013-6-12,94.8,81.2,65.3,78.4,71.1,65.0,100,74,43,29.95,29.83,15,4,15,0.00
2013-6-13,95.4,80.4,68.5,77.0,72.3,64.5,100,81,41,29.83,29.59,30,5,30,0.21
2013-6-14,88.5,75.1,61.7,68.5,57.2,45.7,100,59,26,30.67,29.72,17,4,17,0.00
2013-6-15,89.2,75.1,58.5,63.6,59.8,53.6,100,64,31,30.08,29.97,12,2,12,0.00
2013-6-16,89.6,77.6,66.7,69.6,65.8,62.2,93,69,41,30.08,29.95,16,5,16,0.00
2013-6-17,90.7,75.9,70.3,74.4,70.7,67.9,100,85,52,29.98,29.88,16,4,16,0.39
2013-6-18,84.6,75.2,69.4,75.6,71.9,69.2,100,90,68,30.61,29.73,20,6,20,0.24
2013-6-19,90.1,76.8,66.4,71.5,67.4,60.5,100,76,40,30.05,29.84,17,3,17,0.00
2013-6-20,86.9,74.8,64.6,69.9,66.6,63.0,100,78,47,30.16,30.05,16,4,16,0.00
2013-6-21,89.1,74.9,61.7,67.2,63.4,58.6,100,71,37,30.21,30.11,14,3,14,0.00
2013-6-22,89.8,75.9,62.1,69.9,65.5,60.8,100,74,41,30.16,30.05,17,3,17,0.00
2013-6-23,91.8,79.1,67.3,74.3,70.5,65.1,100,77,44,30.15,30.06,17,3,17,0.00
2013-6-24,91.8,78.7,69.4,74.8,71.9,68.2,99,82,51,30.15,30.03,18,4,18,0.00
2013-6-25,95.4,80.0,71.1,75.2,72.2,67.3,100,80,43,30.09,29.94,13,5,13,0.00
2013-6-26,94.6,77.0,68.9,75.0,71.7,68.1,100,87,46,29.98,29.85,20,4,20,0.33
2013-6-27,92.3,79.0,72.0,80.2,74.5,71.5,100,88,55,29.89,29.67,21,5,21,0.52
2013-6-28,94.6,79.9,69.8,76.8,72.5,68.4,100,81,43,29.72,29.54,14,4,16,1.00
2013-6-29,92.3,78.9,70.3,76.4,71.3,64.5,99,80,44,29.66,29.57,13,4,13,0.01
2013-6-30,89.1,75.7,67.3,76.1,71.6,66.8,100,89,55,29.79,29.64,16,4,16,0.25
2013-7-1,86.5,75.2,66.7,74.9,70.7,66.5,100,87,59,29.91,29.77,18,4,18,0.08
2013-7-2,81.9,73.7,71.6,75.2,72.8,71.3,99,97,78,30.08,29.91,24,5,24,0.51
2013-7-3,81.9,75.2,71.8,77.8,74.1,71.5,100,96,81,30.15,30.05,14,3,14,0.07
2013-7-4,91.6,77.1,70.3,78.5,73.9,66.1,100,91,53,30.19,30.08,36,5,36,0.91
2013-7-5,73.0,72.6,72.1,72.8,72.3,71.9,99,99,99,30.16,30.14,10,4,10,0.00
2013-7-6,88.2,69.4,52.7,59.3,55.0,48.9,99,66,26,29.88,29.79,8,2,8,0.00
2013-7-7,89.6,79.2,56.5,77.0,70.9,56.0,100,78,38,30.69,29.75,14,4,14,0.00
2013-7-8,92.5,79.9,72.0,78.3,74.2,70.0,100,85,55,29.99,29.91,10,3,10,0.21
2013-7-9,98.2,81.6,71.4,81.5,74.4,70.6,99,81,45,29.97,29.84,19,3,19,0.69
2013-7-10,91.6,78.1,70.5,79.7,73.9,70.1,100,88,56,29.92,29.75,16,4,16,0.40
2013-7-11,78.6,73.9,70.9,78.2,73.7,69.0,99,99,99,29.77,29.68,8,2,8,0.53
2013-7-12,86.4,75.8,70.5,77.8,72.1,69.9,100,89,62,29.81,29.67,17,4,17,0.00
2013-7-13,85.5,74.4,69.3,75.1,71.9,68.8,100,92,70,29.92,29.81,16,4,16,0.07
2013-7-14,90.3,77.0,70.7,77.8,73.3,70.4,100,90,59,30.08,29.88,27,6,27,0.40
2013-7-15,92.3,77.6,69.3,76.4,71.7,69.0,100,85,51,30.13,30.03,10,2,10,0.00
2013-7-16,97.5,82.6,69.4,77.8,72.0,66.0,100,75,38,30.10,30.00,9,2,9,0.00
2013-7-17,95.9,74.3,70.3,79.5,73.0,70.1,99,96,52,30.04,29.92,10,2,10,0.09
2013-7-18,96.3,81.7,69.1,78.6,75.1,68.6,99,83,47,29.98,29.86,14,2,14,0.00
2013-7-19,95.2,82.4,72.9,78.8,75.4,71.7,100,81,50,29.92,29.79,15,3,15,0.00
2013-7-20,90.0,77.7,72.1,78.6,75.3,71.9,100,93,63,29.84,29.73,13,4,13,0.00
2013-7-21,95.5,77.8,70.7,77.5,73.8,70.4,99,90,48,29.82,29.71,15,3,15,0.24
2013-7-22,88.9,77.5,70.7,76.8,73.7,70.1,99,89,62,29.80,29.64,13,4,13,0.01
2013-7-23,93.0,80.7,72.0,76.7,72.9,67.8,99,80,45,29.67,29.57,16,5,16,0.00
2013-7-24,100.2,82.8,71.1,78.3,72.1,64.5,99,75,32,29.66,29.55,9,2,9,0.00
2013-7-25,89.6,77.3,69.6,73.2,70.1,65.8,99,81,48,29.83,29.63,11,4,14,0.00
2013-7-26,91.2,77.5,67.5,73.7,69.6,64.9,99,80,44,29.91,29.80,12,2,12,0.00
2013-7-27,74.8,74.0,72.7,74.6,73.4,71.0,99,98,92,29.83,29.77,14,4,14,0.00
2013-7-28,90.5,76.0,69.4,74.2,70.9,67.1,99,86,53,29.79,29.72,10,4,10,0.22
2013-7-29,90.5,83.5,67.3,74.8,67.9,63.7,99,61,43,29.92,29.80,13,4,13,0.00
2013-7-30,92.5,81.7,72.3,73.2,67.5,61.3,95,64,41,30.02,29.87,14,3,14,0.00
2013-7-31,84.6,74.8,70.9,75.9,72.6,70.3,99,93,70,29.95,29.79,13,2,13,0.07
2013-8-1,93.0,77.5,71.1,77.1,73.2,69.7,99,88,48,29.80,29.67,13,3,16,0.14
2013-8-2,94.5,80.4,69.4,76.6,70.7,64.6,99,76,39,29.83,29.71,17,2,17,0.00
2013-8-3,91.2,81.4,72.7,79.2,73.0,67.1,99,78,49,29.82,29.73,15,4,15,0.00
2013-8-4,91.4,80.1,68.7,75.4,69.9,64.5,99,75,42,29.83,29.72,18,3,18,0.00
2013-8-5,89.6,77.6,69.1,71.3,69.0,64.8,99,77,45,29.88,29.77,13,3,14,0.00
2013-8-6,77.9,72.5,68.2,74.5,71.2,67.5,99,96,75,29.86,29.77,14,4,14,0.34
2013-8-7,87.4,76.7,70.5,78.4,72.2,68.9,99,87,57,29.89,29.81,12,2,14,0.59
2013-8-8,90.9,79.0,72.3,79.5,74.7,72.1,99,88,57,29.87,29.79,11,3,11,0.07
2013-8-9,93.7,80.8,72.3,78.6,75.3,72.1,99,85,55,29.87,29.81,16,4,16,0.00
2013-8-10,95.2,79.3,72.7,79.8,75.6,72.0,99,90,54,29.91,29.84,28,4,28,0.21
2013-8-11,95.5,80.6,70.5,78.6,73.9,68.7,99,83,44,29.93,29.83,11,3,11,0.00
2013-8-12,96.4,81.9,71.6,79.6,73.8,70.5,99,80,46,29.87,29.75,8,2,8,0.00
2013-8-13,91.8,78.5,71.4,78.7,73.8,68.3,99,87,55,29.77,29.60,15,4,15,0.00
2013-8-14,83.1,74.0,64.9,73.3,66.7,57.3,99,80,47,29.87,29.67,14,3,14,0.00
2013-8-15,78.3,69.0,61.0,64.5,60.5,53.9,99,77,46,29.95,29.86,18,3,18,0.00
2013-8-16,74.5,66.0,59.9,66.2,62.4,59.6,99,89,63,29.96,29.88,13,3,13,0.00
2013-8-17,68.0,64.5,61.3,67.6,64.2,61.1,99,99,97,29.99,29.92,12,3,12,0.38
2013-8-18,84.7,73.1,64.2,75.3,69.4,64.0,99,89,66,30.02,29.92,7,1,7,0.17
2013-8-19,72.5,70.5,69.3,72.1,70.3,69.0,99,99,99,29.99,29.91,11,2,11,0.90
2013-8-20,85.3,78.6,66.6,76.3,72.5,66.3,99,83,65,29.99,29.91,8,2,8,0.00
2013-8-21,84.0,74.8,70.0,79.1,73.7,69.7,99,96,77,30.03,29.91,11,2,12,0.01
2013-8-22,93.4,80.1,69.1,78.5,72.3,57.1,99,80,41,29.95,29.72,9,3,10,0.00
2013-8-23,93.6,76.2,67.8,77.2,71.1,66.6,99,87,44,29.84,29.74,19,3,19,0.00
2013-8-24,86.5,73.6,63.3,71.0,64.4,58.1,99,77,40,30.05,29.84,15,4,15,0.00
2013-8-25,85.6,70.7,59.2,68.4,62.9,55.2,99,80,38,30.15,30.03,18,2,18,0.00
2013-8-26,88.9,72.8,57.7,69.6,62.5,57.5,99,74,39,30.08,29.88,10,2,10,0.00
2013-8-27,92.8,78.3,64.6,74.0,69.6,64.3,99,77,45,29.91,29.76,10,4,10,0.00
2013-8-28,94.8,80.8,69.1,76.6,72.9,68.4,99,80,48,29.79,29.68,11,3,11,0.00
2013-8-29,98.1,83.7,73.2,77.2,74.0,68.3,99,76,39,29.75,29.66,13,4,13,0.00
2013-8-30,93.7,80.0,71.1,76.4,71.2,65.0,99,78,41,29.83,29.70,11,3,11,0.00
2013-8-31,92.5,77.2,69.1,77.3,72.2,68.8,99,86,53,29.74,29.63,11,3,14,0.05
2013-9-1,91.9,76.0,67.8,78.4,71.9,67.6,99,89,57,29.68,29.57,24,4,24,0.60
2013-9-2,94.1,78.6,68.7,79.2,73.4,68.5,99,86,50,29.69,29.58,9,2,9,0.00
2013-9-3,93.0,80.6,71.6,80.4,71.7,64.7,99,78,41,29.74,29.58,12,3,12,0.00
2013-9-4,94.3,77.6,64.2,71.7,66.7,60.6,99,73,37,29.86,29.73,15,2,15,0.00
2013-9-5,92.8,77.2,65.8,74.5,67.0,53.9,99,75,28,29.89,29.81,8,2,9,0.00
2013-9-6,88.2,75.4,64.4,68.4,63.5,58.3,99,70,38,29.96,29.83,13,3,13,0.00
2013-9-7,86.5,72.9,61.0,69.8,65.6,60.7,99,80,48,29.91,29.74,11,2,12,0.00
2013-9-8,93.4,77.3,64.0,71.8,67.1,60.4,99,75,37,29.76,29.69,9,2,9,0.00
2013-9-9,93.7,79.2,66.7,75.4,68.1,60.7,99,73,34,29.91,29.76,14,2,14,0.00
2013-9-10,95.9,80.1,67.3,76.0,69.5,63.3,99,74,36,30.00,29.89,8,2,8,0.00
2013-9-11,93.9,80.4,68.7,72.3,68.4,60.9,99,70,36,29.98,29.84,11,3,11,0.00
2013-9-12,93.4,79.1,69.8,74.1,70.0,65.8,99,75,43,29.85,29.61,14,4,14,0.00
2013-9-13,88.3,76.9,66.6,71.9,61.4,49.8,99,64,29,29.68,29.55,16,4,16,0.00
2013-9-14,82.0,67.9,56.3,60.7,54.8,50.3,97,65,40,29.87,29.67,14,4,17,0.00
2013-9-15,88.2,69.6,56.1,68.1,62.6,55.9,99,81,44,29.98,29.86,10,2,10,0.00
2013-9-16,90.1,76.0,64.9,70.0,65.2,54.7,99,73,31,29.92,29.81,12,2,12,0.00
2013-9-17,78.6,70.4,64.4,63.9,58.2,53.2,82,66,44,30.06,29.92,18,6,18,0.00
2013-9-18,80.4,66.4,58.6,61.4,56.2,51.4,92,71,42,30.07,29.92,13,4,14,0.00
2013-9-19,88.2,70.4,59.5,67.1,61.9,57.2,99,77,43,29.95,29.83,8,2,9,0.00
2013-9-20,90.9,74.8,62.2,71.2,66.2,59.7,99,78,38,29.85,29.67,9,2,9,0.00
2013-9-21,74.5,70.0,63.7,73.9,69.5,63.4,99,98,90,29.69,29.46,13,4,13,1.35
2013-9-22,82.9,68.7,57.6,64.0,59.1,49.7,99,76,37,29.68,29.46,15,3,15,0.01
2013-9-23,81.9,66.8,55.9,61.5,57.5,53.4,99,75,40,29.83,29.67,17,3,17,0.00
2013-9-24,77.9,70.7,60.3,64.1,60.6,58.5,99,73,55,29.84,29.81,8,2,8,0.00
2013-9-25,75.6,75.6,75.6,60.3,60.3,60.3,59,59,59,29.81,29.81,3,3,8,0.00
2013-9-26,75.6,75.6,75.6,60.3,60.3,60.3,59,59,59,29.81,29.81,3,3,8,0.00
2013-9-27,83.3,73.1,56.7,60.3,58.6,52.8,99,62,38,29.98,29.75,14,3,14,0.31
2013-9-28,76.5,61.4,52.9,61.5,55.0,51.2,99,82,44,30.06,29.95,16,3,16,0.00
2013-9-29,75.9,63.7,52.9,63.2,57.2,52.6,99,82,49,29.97,29.83,11,2,11,0.00
2013-9-30,82.4,67.0,53.6,66.7,56.1,49.6,99,73,34,29.91,29.79,12,2,12,0.00
2013-10-1,85.3,69.0,55.4,65.0,59.6,54.6,99,76,37,29.94,29.83,11,2,11,0.00
2013-10-2,90.1,71.4,57.4,67.4,61.8,57.1,99,76,35,29.96,29.86,11,2,12,0.00
2013-10-3,87.3,72.9,60.8,69.2,62.7,55.4,99,75,34,29.94,29.86,11,2,11,0.00
2013-10-4,93.0,74.7,61.3,69.0,64.3,57.5,99,74,33,29.95,29.86,11,2,11,0.00
2013-10-5,93.0,75.4,62.2,72.1,65.6,60.7,99,76,37,29.94,29.83,9,1,9,0.00
2013-10-6,88.5,74.6,63.7,71.0,66.3,62.9,99,78,43,29.85,29.68,11,3,11,0.00
2013-10-7,82.0,71.4,62.2,74.9,68.3,56.0,99,90,70,29.80,29.61,14,4,14,0.73
2013-10-8,69.8,63.1,58.6,56.0,49.9,44.6,78,63,44,29.99,29.80,21,7,26,0.00
2013-10-9,76.1,61.8,50.5,54.0,49.2,44.0,91,66,37,30.02,29.90,19,4,19,0.00
2013-10-10,78.8,63.2,49.3,64.4,56.7,49.0,99,81,53,29.92,29.76,11,3,11,0.00
2013-10-11,83.1,69.4,59.5,64.5,59.7,54.8,95,74,39,29.81,29.71,14,3,14,0.00
2013-10-12,77.7,67.6,59.0,66.6,63.2,58.7,99,87,60,29.88,29.76,8,2,8,0.00
2013-10-13,73.8,67.6,63.5,65.9,64.6,63.1,99,91,72,30.00,29.88,15,4,15,0.00
2013-10-14,72.5,66.5,60.8,65.6,63.0,60.5,99,89,73,30.04,29.94,17,5,17,0.02
2013-10-15,78.4,68.7,57.0,63.7,58.9,50.0,98,73,38,29.99,29.84,14,3,14,0.00
2013-10-16,76.3,64.0,52.5,64.0,59.0,52.3,99,86,58,29.88,29.75,8,2,8,0.00
2013-10-17,72.1,65.5,60.1,67.2,64.3,59.8,99,96,75,29.77,29.65,12,3,12,0.09
2013-10-18,84.6,66.6,54.3,66.5,58.0,51.3,99,77,38,29.97,29.68,14,4,14,0.00
2013-10-19,83.3,64.7,53.6,64.3,58.7,53.3,99,84,41,29.95,29.83,10,4,10,0.01
2013-10-20,73.8,55.6,44.1,53.3,44.8,35.0,99,73,26,30.09,29.91,14,2,14,0.01
2013-10-21,72.1,56.2,41.5,55.7,49.2,41.3,99,80,46,30.14,29.98,10,2,10,0.00
2013-10-22,72.3,62.0,56.3,61.7,57.8,53.9,99,87,55,30.00,29.78,11,3,11,0.00
2013-10-23,68.2,56.9,41.7,58.4,42.9,25.1,99,66,21,30.03,29.72,25,6,25,0.00
2013-10-24,64.9,47.8,33.6,44.1,36.3,29.1,99,68,33,30.16,30.02,15,2,15,0.00
2013-10-25,58.6,46.8,34.9,41.7,33.0,23.2,98,63,27,30.36,30.14,15,4,15,0.00
2013-10-26,60.8,44.5,28.2,37.7,31.7,27.7,99,66,29,30.35,30.05,17,4,17,0.00
2013-10-27,72.5,55.7,39.4,50.6,44.0,37.3,99,69,37,30.12,30.03,13,2,13,0.00
2013-10-28,75.7,58.0,47.3,58.2,52.9,47.0,99,86,46,30.25,30.09,10,1,10,0.00
2013-10-29,79.9,63.0,51.8,60.1,54.7,50.4,99,78,36,30.32,30.22,14,2,14,0.00
2013-10-30,82.6,65.6,53.4,60.0,56.9,53.2,99,77,39,30.27,30.13,16,3,16,0.00
2013-10-31,72.1,64.9,55.9,67.0,59.8,55.7,99,84,65,30.17,29.88,15,3,15,0.00
2013-11-1,70.0,65.4,58.5,67.7,63.6,58.2,99,94,80,29.88,29.67,22,7,22,0.41
2013-11-2,71.6,58.1,45.7,61.1,50.4,37.5,99,80,33,29.98,29.71,17,4,17,0.02
2013-11-3,65.8,50.8,38.5,44.5,37.8,28.1,99,67,25,30.32,29.97,14,3,14,0.01
2013-11-4,63.7,47.8,35.4,42.5,34.4,24.9,99,66,24,30.50,30.32,18,3,18,0.00
2013-11-5,59.0,47.2,34.3,51.4,40.3,32.3,99,78,56,30.54,30.40,12,3,12,0.00
2013-11-6,77.9,59.3,50.4,55.3,52.0,49.7,99,80,40,30.40,30.10,12,3,12,0.00
2013-11-7,74.5,55.5,43.5,63.3,46.8,31.6,99,77,36,30.13,29.94,21,4,21,0.00
2013-11-8,64.8,47.9,34.7,37.0,24.2,2.5,85,47,10,30.30,30.12,15,3,15,0.00
2013-11-9,60.6,47.0,30.4,35.6,29.3,19.4,96,56,21,30.35,30.18,15,3,15,0.00
2013-11-10,76.6,57.2,39.7,42.9,31.0,16.9,90,44,11,30.21,30.09,14,4,14,0.00
2013-11-11,66.9,50.4,34.3,34.1,24.8,11.3,77,42,12,30.33,30.12,15,2,15,0.00
2013-11-12,68.2,46.1,29.3,39.7,30.5,14.7,99,59,16,30.43,30.03,23,6,23,0.05
2013-11-13,53.8,36.1,23.9,23.9,15.0,-2.4,83,48,10,30.52,30.42,12,3,12,0.00
2013-11-14,61.9,42.8,27.1,23.7,15.7,2.0,83,41,10,30.44,30.30,14,3,14,0.00
2013-11-15,61.2,48.3,35.1,49.2,33.6,19.3,99,60,26,30.32,30.17,9,2,9,0.11
2013-11-16,70.7,56.2,48.0,59.3,54.0,47.8,99,93,64,30.25,30.17,9,2,9,0.01
2013-11-17,70.7,60.9,53.4,66.1,59.3,53.2,99,95,75,30.20,29.88,13,2,13,0.13
2013-11-18,78.4,66.6,52.9,68.5,46.7,18.5,99,58,14,29.99,29.82,17,6,17,0.01
2013-11-19,60.1,48.8,39.0,31.9,24.2,14.4,63,40,17,30.25,29.99,19,4,19,0.00
2013-11-20,56.8,46.3,35.4,34.3,30.6,26.8,77,55,37,30.42,30.23,21,6,21,0.00
2013-11-21,59.4,50.2,44.6,45.9,41.0,33.2,78,71,60,30.46,30.34,16,3,16,0.00
2013-11-22,66.0,57.4,50.0,60.9,54.2,45.0,99,89,78,30.38,30.09,16,4,16,0.00
2013-11-23,61.5,55.5,41.9,59.5,42.7,5.5,99,68,18,30.20,30.04,20,4,20,0.00
2013-11-24,45.9,35.3,25.3,22.1,5.3,-12.0,52,32,10,30.48,30.19,17,4,17,0.00
2013-11-25,47.1,34.4,21.2,21.7,5.4,-9.7,75,35,10,30.52,30.31,11,2,11,0.00
2013-11-26,45.1,37.6,31.8,44.9,35.4,22.2,99,93,55,30.31,29.58,21,4,21,2.99
2013-11-27,45.9,39.0,27.3,45.6,33.3,16.8,99,82,48,30.17,29.51,21,6,21,0.24
2013-11-28,53.2,35.6,20.7,25.8,18.8,11.2,93,55,19,30.43,30.17,10,2,11,0.00
2013-11-29,56.8,40.1,26.2,33.0,23.1,10.4,95,57,16,30.56,30.42,15,3,15,0.00
2013-11-30,51.1,38.5,28.0,27.5,23.9,17.7,86,58,28,30.60,30.33,15,4,15,0.00
2013-12-1,64.6,42.8,27.3,39.4,32.0,25.6,96,70,31,30.33,29.99,14,2,14,0.00
2013-12-2,63.7,46.7,31.1,41.0,36.1,30.9,99,71,33,30.00,29.80,8,2,8,0.00
2013-12-3,61.9,53.8,46.4,54.4,49.2,39.1,99,85,69,29.95,29.84,11,2,11,0.01
2013-12-4,65.7,57.9,53.1,63.2,57.3,52.8,99,98,86,30.06,29.93,11,2,11,0.07
2013-12-5,66.9,63.5,60.1,66.7,63.3,59.8,99,99,99,30.10,30.00,13,4,13,0.13
2013-12-6,78.6,70.8,66.2,68.7,66.1,63.0,99,86,61,30.05,29.94,26,9,26,0.00
2013-12-7,70.2,55.8,46.4,67.6,51.7,40.6,99,86,70,30.39,29.98,20,8,21,0.09
2013-12-8,46.6,38.0,34.3,40.7,36.2,34.1,99,94,77,30.38,30.23,21,6,21,0.13
2013-12-9,45.9,39.9,34.5,44.9,39.6,34.3,99,99,99,30.24,30.01,7,2,7,0.57
2013-12-10,57.0,44.7,30.6,53.8,38.2,22.1,99,81,32,30.29,29.88,27,3,27,0.17
2013-12-11,55.2,38.8,24.8,33.5,24.0,13.0,99,62,19,30.41,30.26,13,2,13,0.00
2013-12-12,54.0,38.9,27.7,28.8,13.7,-11.3,92,44,10,30.38,30.25,12,3,12,0.00
2013-12-13,55.6,39.1,23.7,32.5,20.9,13.6,83,52,21,30.34,30.22,14,2,14,0.00
2013-12-14,46.2,40.4,37.8,43.1,36.5,29.3,99,87,61,30.23,29.77,22,4,22,0.59
2013-12-15,55.9,43.7,31.3,46.5,24.5,-3.4,99,58,10,30.08,29.72,17,5,17,0.01
2013-12-16,61.7,43.1,28.8,19.5,10.5,-2.6,62,34,10,30.14,30.05,12,4,12,0.00
2013-12-17,65.5,55.4,37.6,18.1,3.8,-5.9,43,13,10,30.10,29.89,24,8,24,0.00
2013-12-18,55.6,44.1,33.1,-0.2,-8.9,-17.5,13,10,10,30.25,30.03,20,4,20,0.00
2013-12-19,67.1,48.1,30.7,8.8,-2.0,-15.3,31,13,10,30.29,30.19,17,4,17,0.00
2013-12-20,63.9,53.1,42.6,40.5,21.1,-7.3,63,31,10,30.22,30.11,19,3,19,0.00
2013-12-21,72.5,61.7,50.2,53.8,45.1,39.0,71,56,38,30.13,29.99,18,3,18,0.00
2013-12-22,72.9,67.3,63.5,64.1,59.5,54.1,99,77,59,30.06,29.96,21,6,21,1.13
2013-12-23,64.2,58.4,45.9,64.0,52.9,21.4,99,85,37,30.16,29.98,14,4,14,1.18
2013-12-24,50.7,40.7,28.6,24.4,2.0,-20.0,59,24,10,30.41,30.14,17,4,17,0.01
2013-12-25,45.7,31.5,20.7,-1.5,-13.6,-22.4,35,14,10,30.50,30.34,16,2,16,0.00
2013-12-26,60.1,39.8,26.6,3.7,-6.7,-17.9,35,15,10,30.34,30.21,8,2,8,0.00
2013-12-27,60.4,41.1,27.7,4.8,-4.5,-15.7,36,16,10,30.43,30.31,11,1,11,0.00
2013-12-28,56.7,41.9,26.1,24.3,0.8,-16.8,47,21,10,30.37,30.08,8,2,8,0.02
2013-12-29,61.5,47.5,41.0,39.2,32.1,22.6,82,58,24,30.08,29.76,17,4,17,1.09
2013-12-30,55.4,45.0,34.9,29.6,20.0,-1.6,69,42,10,30.09,29.92,6,1,6,0.00
2013-12-31,52.9,42.1,33.3,27.1,1.8,-17.3,54,23,10,30.33,30.06,11,2,11,0.00
2014-1-1,52.3,40.1,29.1,6.5,-5.1,-17.8,35,16,10,30.36,30.10,10,2,11,0.00
2014-1-2,46.6,42.7,32.5,38.6,18.7,-17.9,75,42,10,30.11,29.63,27,4,27,0.25